Location: Valentinhaft
(48.0370°N, 13.1914°E)
Time: 17:40:54
(UTC+02:00)

ISS - Visible Passes

Search period start: 01 October 2022 00:00
Search period end: 11 October 2022 00:00
Orbit: 413 x 417 km, 51.6° (Epoch: 01 October)

Date Brightness Start Highest point End Pass type
(mag) Time Alt. Az. Time Alt. Az. Time Alt. Az.
01 Oct -2.6 20:32:07 10° WNW 20:35:14 36° SW 20:35:58 31° S visible
02 Oct -3.2 19:43:11 10° WNW 19:46:29 55° SSW 19:49:15 14° SE visible
02 Oct -0.7 21:22:00 10° WSW 21:22:08 10° SW 21:22:08 10° SW visible
03 Oct -1.3 20:31:45 10° W 20:33:58 17° SW 20:35:29 13° SSW visible
04 Oct -1.8 19:42:26 10° W 19:45:16 25° SW 19:48:06 10° SSE visible
06 Oct -0.7 19:42:35 10° WSW 19:43:46 11° SW 19:44:57 10° SSW visible
